Location: Rounton
(54.4000°N, 1.3500°W)
Time: 06:52:57
(UTC+00:00)

Vanguard 1 - Pass Details

Date: 05 December 2021
Orbit: 652 x 3830 km, 34.2° (Epoch: 16 January)

Event Time Altitude Azimuth Distance (km) Brightness Sun altitude
Rises 22:49:10 0° 213° (SSW) 7,045 - -55.7°
Reaches altitude 10° 22:54:20 10° 205° (SSW) 6,370 - -56.0°
Maximum altitude 23:11:54 32° 152° (SSE) 5,254 - -57.0°
Drops below altitude 10° 23:29:41 10° 99° (E) 6,496 - -57.7°
Exits shadow 23:29:57 10° 99° (E) 6,529 14.1 -57.7°
Sets 23:34:57 0° 91° (E) 7,202 14.4 -57.8°
